Weather History for Brownsville, TX

Change the Weather History Date:

Wednesday, February 6, 2013

  Actual Average Record
Temperature  
Mean Temperature 77 °F 63 °F  
Max Temperature 85 °F 73 °F 91 °F (1914)
Min Temperature 68 °F 54 °F 27 °F (1912)
Degree Days  
Heating Degree Days 0 5  
Month to date heating degree days 1 30  
Since 1 July heating degree days 257 429  
Cooling Degree Days 12 3  
Month to date cooling degree days 39 13  
Year to date cooling degree days 113 72  
Growing Degree Days 26 (Base 50)    
Moisture  
Dew Point 69 °F    
Average Humidity 79    
Maximum Humidity 100    
Minimum Humidity 58    
Precipitation  
Precipitation 0.00 in 0.05 in 0.63 in (1879)
Month to date precipitation T 0.29  
Year to date precipitation 1.47 1.56  
Sea Level Pressure  
Sea Level Pressure 29.88 in    
Wind  
Wind Speed 11 mph (SE)    
Max Wind Speed 25 mph    
Max Gust Speed 30 mph    
Visibility 10 miles    
Events      
T = Trace of Precipitation, MM = Missing Value Source: NWS Daily Summary

Daily Weather History Graph

Daily Weather History Graph

Search for Another Location

Airport:

Trip Planner

Search our weather history database for the weather conditions in past years. The results will help you decide how hot, cold, wet, or windy it might be!

Date:

Astronomy

Feb. 06, 2013 Rise Set
Actual Time 7:10 AM CST 6:17 PM CST
Civil Twilight 6:46 AM CST 6:40 PM CST
Nautical Twilight 6:19 AM CST 7:08 PM CST
Astronomical Twilight 5:52 AM CST 7:35 PM CST
Moon 3:45 AM CST (2/6) 2:47 PM CST (2/6)
Length of Visible Light 11h 53m
Length of Day
11h 06m
Waning Crescent, 17% of the Moon is Illuminated
Feb 6
Waning Crescent
Feb 10
New
Feb 17
First Quarter
Feb 25
Full
Mar 4
Last Quarter

Hourly Weather History & Observations

Time (CST) Temp. Heat Index Dew Point Humidity Pressure Visibility Wind Dir Wind Speed Gust Speed Precip Events Conditions
12:24 AM 71.6 °F - 69.8 °F 94% 29.91 in 10.0 mi SE 12.7 mph - N/A   Scattered Clouds
12:37 AM 71.6 °F - 69.8 °F 94% 29.91 in 10.0 mi SE 10.4 mph - N/A   Scattered Clouds
12:53 AM 71.1 °F - 70.0 °F 96% 29.91 in 10.0 mi SE 12.7 mph - N/A   Partly Cloudy
1:26 AM 71.6 °F - 69.8 °F 94% 29.92 in 10.0 mi SE 8.1 mph - N/A   Mostly Cloudy
1:53 AM 71.1 °F - 70.0 °F 96% 29.93 in 10.0 mi ESE 5.8 mph - N/A   Mostly Cloudy
2:07 AM 71.6 °F - 69.8 °F 94% 29.93 in 10.0 mi East 5.8 mph - N/A   Mostly Cloudy
2:53 AM 70.0 °F - 69.1 °F 97% 29.91 in 10.0 mi ESE 5.8 mph - N/A   Scattered Clouds
3:06 AM 69.8 °F - 69.8 °F 100% 29.91 in 10.0 mi ESE 5.8 mph - N/A   Mostly Cloudy
3:28 AM 69.8 °F - 69.8 °F 100% 29.91 in 10.0 mi ESE 6.9 mph - N/A   Overcast
3:36 AM 69.8 °F - 69.8 °F 100% 29.90 in 10.0 mi ESE 8.1 mph - N/A   Mostly Cloudy
3:53 AM 70.0 °F - 68.0 °F 93% 29.90 in 10.0 mi East 6.9 mph - N/A   Mostly Cloudy
4:04 AM 69.8 °F - 69.8 °F 100% 29.90 in 10.0 mi ESE 5.8 mph - N/A   Mostly Cloudy
4:19 AM 69.8 °F - 69.8 °F 100% 29.91 in 10.0 mi East 6.9 mph - N/A   Overcast
4:53 AM 70.0 °F - 69.1 °F 97% 29.90 in 10.0 mi East 5.8 mph - N/A   Overcast
5:53 AM 71.1 °F - 69.1 °F 93% 29.90 in 10.0 mi East 8.1 mph - N/A   Overcast
6:53 AM 71.1 °F - 70.0 °F 96% 29.91 in 10.0 mi East 8.1 mph - N/A   Overcast
7:07 AM 71.6 °F - 69.8 °F 94% 29.91 in 10.0 mi ESE 8.1 mph - N/A   Overcast
7:40 AM 71.6 °F - 69.8 °F 94% 29.90 in 10.0 mi ESE 9.2 mph - N/A   Overcast
7:50 AM 71.6 °F - 69.8 °F 94% 29.90 in 10.0 mi ESE 6.9 mph - N/A   Overcast
7:53 AM 72.0 °F - 70.0 °F 93% 29.90 in 10.0 mi ESE 9.2 mph - N/A   Overcast
8:53 AM 73.9 °F - 71.1 °F 91% 29.92 in 10.0 mi SE 11.5 mph - N/A   Mostly Cloudy
9:01 AM 73.4 °F - 71.6 °F 94% 29.92 in 10.0 mi SE 11.5 mph - N/A   Overcast
9:53 AM 79.0 °F - 71.1 °F 77% 29.93 in 10.0 mi SSE 18.4 mph 24.2 mph N/A   Mostly Cloudy
9:59 AM 78.8 °F - 69.8 °F 74% 29.93 in 10.0 mi SSE 17.3 mph - N/A   Mostly Cloudy
10:02 AM 78.8 °F - 69.8 °F 74% 29.93 in 10.0 mi SE 16.1 mph 24.2 mph N/A   Mostly Cloudy
10:24 AM 78.8 °F - 69.8 °F 74% 29.92 in 10.0 mi SSE 18.4 mph - N/A   Mostly Cloudy
10:36 AM 78.8 °F - 69.8 °F 74% 29.92 in 10.0 mi SSE 18.4 mph 27.6 mph N/A   Scattered Clouds
10:53 AM 80.1 °F 82.9 °F 69.1 °F 69% 29.91 in 10.0 mi SSE 19.6 mph 27.6 mph N/A   Mostly Cloudy
11:09 AM 80.6 °F 83.9 °F 69.8 °F 70% 29.91 in 10.0 mi SSE 20.7 mph - N/A   Mostly Cloudy
11:24 AM 80.6 °F 83.9 °F 69.8 °F 70% 29.91 in 10.0 mi South 21.9 mph - N/A   Mostly Cloudy
11:43 AM 80.6 °F 83.9 °F 69.8 °F 70% 29.90 in 10.0 mi SSE 24.2 mph 29.9 mph N/A   Mostly Cloudy
11:53 AM 81.0 °F 84.1 °F 69.1 °F 67% 29.89 in 10.0 mi SSE 24.2 mph 28.8 mph N/A   Mostly Cloudy
12:16 PM 82.4 °F 86.3 °F 69.8 °F 66% 29.88 in 10.0 mi South 23.0 mph - N/A   Mostly Cloudy
12:53 PM 82.9 °F 85.8 °F 68.0 °F 60% 29.85 in 10.0 mi SSE 19.6 mph 26.5 mph N/A   Mostly Cloudy
1:53 PM 82.0 °F 84.9 °F 68.0 °F 62% 29.81 in 10.0 mi South 18.4 mph 27.6 mph N/A   Mostly Cloudy
2:53 PM 82.9 °F 85.8 °F 68.0 °F 60% 29.79 in 10.0 mi South 19.6 mph 26.5 mph N/A   Mostly Cloudy
3:53 PM 82.0 °F 84.5 °F 66.9 °F 60% 29.77 in 10.0 mi South 18.4 mph - N/A   Mostly Cloudy
4:53 PM 80.1 °F 82.3 °F 66.9 °F 64% 29.77 in 10.0 mi South 16.1 mph - N/A   Partly Cloudy
5:53 PM 78.1 °F - 68.0 °F 71% 29.79 in 10.0 mi SSE 10.4 mph - N/A   Partly Cloudy
6:53 PM 73.0 °F - 68.0 °F 84% 29.81 in 10.0 mi SSE 8.1 mph - N/A   Clear
7:53 PM 71.1 °F - 68.0 °F 90% 29.83 in 10.0 mi SSE 6.9 mph - N/A   Clear
8:53 PM 70.0 °F - 68.0 °F 93% 29.85 in 9.0 mi SE 5.8 mph - N/A   Clear
9:53 PM 70.0 °F - 69.1 °F 97% 29.86 in 7.0 mi Calm Calm - N/A   Clear
10:17 PM 68.0 °F - 68.0 °F 100% 29.87 in 6.0 mi Calm Calm - N/A   Scattered Clouds
10:53 PM 69.1 °F - 69.1 °F 100% 29.87 in 5.0 mi Calm Calm - N/A   Scattered Clouds
11:53 PM 68.0 °F - 66.9 °F 96% 29.87 in 3.0 mi NNE 3.5 mph - N/A   Mostly Cloudy